Starlink 32484

operational
NORAD ID: 62160 Int'l Des: 2024-224 Owner: SPXS Country: US Constellation: starlink
LEOCIRCULAR

Starlink 32484について

説明を読み込み中...

リアルタイム位置

3D地球を読み込み中...

次回通過

高度履歴

Altitude vs Time

uPlot chart will show altitude changes over time

軌道要素

1 62160U 24224X 25260.46074734 .00020539 00000-0 75313-3 0 9990
2 62160 42.9985 56.6787 0002121 283.5492 76.5123 15.27609927 45980
Epoch: Sep 17, 2025 • Age: 33 hours

現在のステータス

高度 481.9 km
速度 7.63 km/s
衛星直下点 16.10°N, 127.1°E
打ち上げ日 Nov 30, 2024
運用期間 0.7 years
タイプ internet

技術仕様

分類 Payload
質量 730.00 kg
乾燥質量 700.00 kg
総質量 730.00 kg
長さ 0.30 m
直径 4.10 m
スパン 29.00 m
形状 Box + pan
製造者 SPXS
バスタイプ Starlink V2M
フェーズステータス In Orbit
所有者/国 SPXS/US

大規模コンステレーション

Loading constellations...